Location: Black Swamp Observatory
(41.3920°N, 84.1250°W)
Time: 18:46:56
(UTC-04:00)

Courier 1B - Pass Details

Date: 29 January 2022
Orbit: 962 x 1209 km, 28.3° (Epoch: 19 May)

Event Time Altitude Azimuth Distance (km) Brightness Sun altitude
Rises 18:59:30 0° 238° (WSW) 3,986 12.1 -13.4°
Reaches altitude 10° 19:02:41 10° 227° (SW) 3,060 11.0 -14.0°
Maximum altitude 19:08:58 29° 171° (S) 2,044 9.2 -15.1°
Enters shadow 19:14:39 13° 119° (ESE) 2,935 9.5 -16.2°
